TOURFACTS.DK  
Stats and Facts from Tour de France.

Tour de France 2018 starts in 200 days
  Riders   Stages   Teams   Summits   Yearly  


 
Search by year

 2017 - St. 21:  14824 starters.
  5132 different riders.
  635 teams.
  2232 stages.
  454 restdays.
  439589.60 km.
  5653 abandonnees.


Top 3
Christopher Froome86:20:55
Rigoberto Uran86:21:49
Romain Bardet86:23:15
Warren Barguil169 pt.
Primoz Roglic80 pt.
Thomas De Gendt64 pt.
Michael Matthews359 pt.
André Greipel234 pt.
Edvald Boasson Hagen220 pt.
Simon Yates86:27:09
Louis Meintjes86:29:15
Emanuel Buchmann86:54:16
Facts from Tour de France 2009
  |   Stages.  |   Stage winners.  |   Days in yellow  |   Average speed.  |   Route.  |   Teams.  |   All riders.  |   Rookies.  |   Withdrawls.  |  

  |   GC.  |   Polka  |   Green  |   White  |   Summits. (In tour)  |   Summits. (Points)  |   Miscellaneous.  |  

Stage 4 on 07 - 07 - 2009
         Owning:    Fabian Cancellara    
Pick a stage:  1 2 3 4 5 6 7 8 9 10 11 12 13 14 15 16 17 18 19 20 21
  MontpellierMontpellier | Dist: 39.00 km.

Average speed for all riders in stage:  47,448 km./hr.
    Place:Name:Team:Time:Km/h:
USALance ArmstrongKAZAstana Pro Team00:46:29  +  00:00:00=50,341 
ESPAlberto ContadorKAZAstana Pro Team00:46:29  +  00:00:00=50,341 
GERAndréas KlödenKAZAstana Pro Team00:46:29  +  00:00:00=50,341 
4 USALevi LeipheimerKAZAstana Pro Team00:46:29  +  00:00:00=50,341 
5 ESPHaimar ZubeldiaKAZAstana Pro Team00:46:29  +  00:00:00=50,341 
6 PORSergio PaulinhoKAZAstana Pro Team00:46:29  +  00:00:00=50,341 
7 UKRYaroslav PopovychKAZAstana Pro Team00:46:46  +  00:00:17=50,036 
8 BELBradley WigginsUSAGarmin-Slipstream00:46:47  +  00:00:18=50,018 
9 USADavid ZabriskieUSAGarmin-Slipstream00:46:47  +  00:00:18=50,018 
10 MLTDavid MillarUSAGarmin-Slipstream00:46:47  +  00:00:18=50,018 
11 USAChristian VandeveldeUSAGarmin-Slipstream00:46:47  +  00:00:18=50,018 
12 CANRyder HesjedalUSAGarmin-Slipstream00:46:47  +  00:00:18=50,018 
13 SUIFabian CancellaraDNKTeam Saxo Bank00:47:09  +  00:00:40=49,629 
14 SWEGustav LarssonDNKTeam Saxo Bank00:47:09  +  00:00:40=49,629 
15 LUXAndy SchleckDNKTeam Saxo Bank00:47:09  +  00:00:40=49,629 
16 GERJens VoigtDNKTeam Saxo Bank00:47:09  +  00:00:40=49,629 
17 NORKurt Asle ArvesenDNKTeam Saxo Bank00:47:09  +  00:00:40=49,629 
18 LUXFränk SchleckDNKTeam Saxo Bank00:47:09  +  00:00:40=49,629 
19 DENChris Anker SørensenDNKTeam Saxo Bank00:47:15  +  00:00:46=49,524 
20 CZERoman KreuzigerITALiquigas00:47:27  +  00:00:58=49,315 
21 ITAVincenzo NibaliITALiquigas00:47:27  +  00:00:58=49,315 
22 DENBrian VandborgITALiquigas00:47:27  +  00:00:58=49,315 
23 ITAFranco PellizottiITALiquigas00:47:27  +  00:00:58=49,315 
24 BELFrederik WillemsITALiquigas00:47:27  +  00:00:58=49,315 
25 GERTony MartinUSATeam Columbia-HTC00:47:28  +  00:00:59=49,298 
26 BELMaxime MonfortUSATeam Columbia-HTC00:47:28  +  00:00:59=49,298 
27 AUSMichael RogersUSATeam Columbia-HTC00:47:28  +  00:00:59=49,298 
28 USAGeorge HincapieUSATeam Columbia-HTC00:47:28  +  00:00:59=49,298 
29 LUXKim KirchenUSATeam Columbia-HTC00:47:28  +  00:00:59=49,298 
30 GERBert GrabschUSATeam Columbia-HTC00:47:28  +  00:00:59=49,298 
31 IOMMark CavendishUSATeam Columbia-HTC00:47:28  +  00:00:59=49,298 
32 ITAFabio SabatiniITALiquigas00:47:34  +  00:01:05=49,194 
33 BLRAliaksandr KuchynskiITALiquigas00:47:38  +  00:01:09=49,125 
34 DENNicki SørensenDNKTeam Saxo Bank00:47:40  +  00:01:11=49,091 
35 AUSStuart O'GradyDNKTeam Saxo Bank00:47:40  +  00:01:11=49,091 
36 RUSVladimir KarpetsRUSTeam Katusha00:47:52  +  00:01:23=48,886 
37 RUSSerguei IvanovRUSTeam Katusha00:47:52  +  00:01:23=48,886 
38 RUSMikhail IgnatyevRUSTeam Katusha00:47:52  +  00:01:23=48,886 
39 ITAFilippo PozzatoRUSTeam Katusha00:47:52  +  00:01:23=48,886 
40 RUSNikolai TrusovRUSTeam Katusha00:47:52  +  00:01:23=48,886 
41 RUSAlexandre BotcharovRUSTeam Katusha00:47:52  +  00:01:23=48,886 
42 ESPLuis RodriguezESPCaisse d´Epargne00:47:58  +  00:01:29=48,784 
43 ESPÓscar PereiroESPCaisse d´Epargne00:47:58  +  00:01:29=48,784 
44 PORRui CostaESPCaisse d´Epargne00:47:58  +  00:01:29=48,784 
45 COLRigoberto UranESPCaisse d´Epargne00:47:58  +  00:01:29=48,784 
46 ESPJosé Ivan GutierrezESPCaisse d´Epargne00:47:58  +  00:01:29=48,784 
47 ESPJosé Joaquin RojasESPCaisse d´Epargne00:47:58  +  00:01:29=48,784 
48 ESPLuis León SánchezESPCaisse d´Epargne00:47:58  +  00:01:29=48,784 
49 ESPDavid ArroyoESPCaisse d´Epargne00:48:03  +  00:01:34=48,699 
50 ESPCarlos SastreCHECervelo Test Team00:48:06  +  00:01:37=48,649 
51 NORThor HushovdCHECervelo Test Team00:48:06  +  00:01:37=48,649 
52 NZLHayden RoulstonCHECervelo Test Team00:48:06  +  00:01:37=48,649 
53 AUSHeinrich HausslerCHECervelo Test Team00:48:06  +  00:01:37=48,649 
54 UKRVolodymir GustovCHECervelo Test Team00:48:06  +  00:01:37=48,649 
55 AUSBrett LancasterCHECervelo Test Team00:48:06  +  00:01:37=48,649 
56 ESPIñigo CuestaCHECervelo Test Team00:48:06  +  00:01:37=48,649 
57 ESPJosé Ángel GomezCHECervelo Test Team00:48:06  +  00:01:37=48,649 
58 ITARinaldo NocentiniFRAAg2r La Mondiale00:48:17  +  00:01:48=48,464 
59 FRANicolas RocheFRAAg2r La Mondiale00:48:17  +  00:01:48=48,464 
60 FRALloyd MondoryFRAAg2r La Mondiale00:48:17  +  00:01:48=48,464 
61 FRAStéphane GoubertFRAAg2r La Mondiale00:48:17  +  00:01:48=48,464 
62 FRACyril DesselFRAAg2r La Mondiale00:48:17  +  00:01:48=48,464 
63 FRAChristophe RiblonFRAAg2r La Mondiale00:48:17  +  00:01:48=48,464 
64 RUSVladimir EfimkinFRAAg2r La Mondiale00:48:17  +  00:01:48=48,464 
65 FRAHubert DupontFRAAg2r La Mondiale00:48:17  +  00:01:48=48,464 
66 ESPJose Luis ArrietaFRAAg2r La Mondiale00:48:17  +  00:01:48=48,464 
67 ESPMikel AstarlozaESPEuskaltel - Euskadi00:48:38  +  00:02:09=48,115 
68 ESPJuan José OrozESPEuskaltel - Euskadi00:48:38  +  00:02:09=48,115 
69 ESPGorka VerdugoESPEuskaltel - Euskadi00:48:38  +  00:02:09=48,115 
70 ESPIgor AntonESPEuskaltel - Euskadi00:48:38  +  00:02:09=48,115 
71 ESPEgoi MartínezESPEuskaltel - Euskadi00:48:38  +  00:02:09=48,115 
72 ESPKoldo FernándezESPEuskaltel - Euskadi00:48:45  +  00:02:16=48,000 
73 NEDRobert GesinkNLDRabobank00:48:49  +  00:02:20=47,934 
74 RUSDenis MenchovNLDRabobank00:48:49  +  00:02:20=47,934 
75 NEDLaurens ten DamNLDRabobank00:48:49  +  00:02:20=47,934 
76 ESPJuan Manuel GarateNLDRabobank00:48:49  +  00:02:20=47,934 
77 GERGrischa NiermannNLDRabobank00:48:49  +  00:02:20=47,934 
78 ARGJuan Antonio FlechaNLDRabobank00:48:49  +  00:02:20=47,934 
79 ESPOscar FreireNLDRabobank00:48:49  +  00:02:20=47,934 
80 FRAJérôme PineauBELQuick Step00:48:55  +  00:02:26=47,836 
81 FRASylvain ChavanelBELQuick Step00:48:55  +  00:02:26=47,836 
82 ESPCarlos BarredoBELQuick Step00:48:55  +  00:02:26=47,836 
83 BELSébastien RosselerBELQuick Step00:48:55  +  00:02:26=47,836 
84 BELTom BoonenBELQuick Step00:48:55  +  00:02:26=47,836 
85 BELStijn DevolderBELQuick Step00:48:55  +  00:02:26=47,836 
86 AUSCadel EvansBELSilence-Lotto00:49:04  +  00:02:35=47,690 
87 FRAMickael DelageBELSilence-Lotto00:49:04  +  00:02:35=47,690 
88 BELGreg Van AvermaetBELSilence-Lotto00:49:04  +  00:02:35=47,690 
89 GERSebastian LangBELSilence-Lotto00:49:04  +  00:02:35=47,690 
90 BELJohan VansummerenBELSilence-Lotto00:49:04  +  00:02:35=47,690 
91 AUSMatthew LloydBELSilence-Lotto00:49:04  +  00:02:35=47,690 
92 FINCharles WegeliusBELSilence-Lotto00:49:04  +  00:02:35=47,690 
93 ESPJoan HorrachRUSTeam Katusha00:49:10  +  00:02:41=47,593 
94 FRASandy CasarFRAFrancaise Des Jeux00:49:15  +  00:02:46=47,513 
95 FRAJérôme CoppelFRAFrancaise Des Jeux00:49:15  +  00:02:46=47,513 
96 FRAJérémy RoyFRAFrancaise Des Jeux00:49:15  +  00:02:46=47,513 
97 FRABenoit VaugrenardFRAFrancaise Des Jeux00:49:15  +  00:02:46=47,513 
98 FRAChristophe Le MevelFRAFrancaise Des Jeux00:49:15  +  00:02:46=47,513 
99 FINJussi VeikkanenFRAFrancaise Des Jeux00:49:15  +  00:02:46=47,513 
100 FRAAnthony GeslinFRAFrancaise Des Jeux00:49:15  +  00:02:46=47,513 
101 GERLinus GerdemannDEUTeam Milram00:49:17  +  00:02:48=47,481 
102 SVKPeter VelitsDEUTeam Milram00:49:17  +  00:02:48=47,481 
103 GERJohannes FröhlingerDEUTeam Milram00:49:17  +  00:02:48=47,481 
104 GERChristian KneesDEUTeam Milram00:49:17  +  00:02:48=47,481 
105 GERGerald CiolekDEUTeam Milram00:49:17  +  00:02:48=47,481 
106 ITAAlessandro VanottiITALiquigas00:49:18  +  00:02:49=47,465 
107 ITADaniele BennatiITALiquigas00:49:18  +  00:02:49=47,465 
108 AUSMark RenshawUSATeam Columbia-HTC00:49:23  +  00:02:54=47,384 
109 NEDJoost PosthumaNLDRabobank00:49:23  +  00:02:54=47,384 
110 FRARémi PauriolFRACofidis Le Credit En Ligne00:49:23  +  00:02:54=47,384 
111 FRAChristophe KernFRACofidis Le Credit En Ligne00:49:23  +  00:02:54=47,384 
112 FRAStéphane AugeFRACofidis Le Credit En Ligne00:49:23  +  00:02:54=47,384 
113 COLLeonardo DuqueFRACofidis Le Credit En Ligne00:49:23  +  00:02:54=47,384 
114 FRASamuel DumoulinFRACofidis Le Credit En Ligne00:49:23  +  00:02:54=47,384 
115 FRADavid MoncoutiéFRACofidis Le Credit En Ligne00:49:23  +  00:02:54=47,384 
116 FRASébastien MinardFRACofidis Le Credit En Ligne00:49:23  +  00:02:54=47,384 
117 FRAAmaël MoinardFRACofidis Le Credit En Ligne00:49:23  +  00:02:54=47,384 
118 ESPBingen FernandezFRACofidis Le Credit En Ligne00:49:23  +  00:02:54=47,384 
119 ESPAmets TxurrukaESPEuskaltel - Euskadi00:49:28  +  00:02:59=47,305 
120 ITAAlessandro BallanITALampre-N.G.C00:49:53  +  00:03:24=46,909 
121 ITAMarzio BruseghinITALampre-N.G.C00:49:53  +  00:03:24=46,909 
122 SLOSimon SpilakITALampre-N.G.C00:49:53  +  00:03:24=46,909 
123 ITAMauro SantambrogioITALampre-N.G.C00:49:53  +  00:03:24=46,909 
124 POLMarcin SapaITALampre-N.G.C00:49:53  +  00:03:24=46,909 
125 BLRYauheni HutarovichFRAFrancaise Des Jeux00:49:59  +  00:03:30=46,816 
126 SUIDavid LoosliITALampre-N.G.C00:50:21  +  00:03:52=46,475 
127 FRASébastien JolyFRAFrancaise Des Jeux00:50:27  +  00:03:58=46,383 
128 NEDStef ClementNLDRabobank00:50:36  +  00:04:07=46,245 
129 USATyler FarrarUSAGarmin-Slipstream00:50:43  +  00:04:14=46,139 
130 NZLJulian DeanUSAGarmin-Slipstream00:50:43  +  00:04:14=46,139 
131 USADanny PateUSAGarmin-Slipstream00:50:43  +  00:04:14=46,139 
132 NEDMartijn MaaskantUSAGarmin-Slipstream00:50:43  +  00:04:14=46,139 
133 FRAMaxime BouetFRAAgritubel00:50:46  +  00:04:17=46,093 
134 FRADavid Le LayFRAAgritubel00:50:46  +  00:04:17=46,093 
135 FRANicolas VogondyFRAAgritubel00:50:46  +  00:04:17=46,093 
136 FRAGeoffroy LequatreFRAAgritubel00:50:46  +  00:04:17=46,093 
137 ESPEduardo GonzaloFRAAgritubel00:50:46  +  00:04:17=46,093 
138 FRAChristophe MoreauFRAAgritubel00:50:46  +  00:04:17=46,093 
139 FRABrice FeilluFRAAgritubel00:50:46  +  00:04:17=46,093 
140 FRASylvain CalzatiFRAAgritubel00:50:46  +  00:04:17=46,093 
141 KAZDmitriy MuravyevKAZAstana Pro Team00:50:48  +  00:04:19=46,063 
142 ESPRuben PerezESPEuskaltel - Euskadi00:50:54  +  00:04:25=45,972 
143 GERMarkus FothenDEUTeam Milram00:51:00  +  00:04:31=45,882 
144 ITAMarco BandieraITALampre-N.G.C00:51:08  +  00:04:39=45,763 
145 ITADaniele RighiITALampre-N.G.C00:51:08  +  00:04:39=45,763 
146 FRALaurent LefèvreFRABbox Bouygues Telecom00:51:10  +  00:04:41=45,733 
147 FRAWilliam BonnetFRABbox Bouygues Telecom00:51:10  +  00:04:41=45,733 
148 FRAPierrick FédrigoFRABbox Bouygues Telecom00:51:10  +  00:04:41=45,733 
149 FRASaid HaddouFRABbox Bouygues Telecom00:51:10  +  00:04:41=45,733 
150 JPNYukiya ArashiroFRABbox Bouygues Telecom00:51:10  +  00:04:41=45,733 
151 FRAThomas VoecklerFRABbox Bouygues Telecom00:51:10  +  00:04:41=45,733 
152 FRAAlexandre PichotFRABbox Bouygues Telecom00:51:10  +  00:04:41=45,733 
153 FRAPierre RollandFRABbox Bouygues Telecom00:51:10  +  00:04:41=45,733 
154 RUSYury TrofimovFRABbox Bouygues Telecom00:51:10  +  00:04:41=45,733 
155 FRAArnaud CoyotESPCaisse d´Epargne00:51:13  +  00:04:44=45,688 
156 BELStijn VandenberghRUSTeam Katusha00:51:35  +  00:05:06=45,363 
157 FRAThierry HupondNLDSkil-Shimano00:51:52  +  00:05:23=45,116 
158 FRACyril LemoineNLDSkil-Shimano00:51:52  +  00:05:23=45,116 
159 NEDKoen De KortNLDSkil-Shimano00:51:52  +  00:05:23=45,116 
160 GERSimon GeschkeNLDSkil-Shimano00:51:52  +  00:05:23=45,116 
161 FRAJonathan HivertNLDSkil-Shimano00:51:52  +  00:05:23=45,116 
162 JPNFumiyuki BeppuNLDSkil-Shimano00:51:52  +  00:05:23=45,116 
163 NEDKenny van HummelNLDSkil-Shimano00:51:52  +  00:05:23=45,116 
164 NEDAlbert TimmerNLDSkil-Shimano00:51:52  +  00:05:23=45,116 
165 GERAndreas KlierCHECervelo Test Team00:51:59  +  00:05:30=45,014 
166 ITAMatteo TosattoBELQuick Step00:52:24  +  00:05:55=44,656 
167 NEDSteven de JonghBELQuick Step00:52:24  +  00:05:55=44,656 
168 NEDNiki TerpstraDEUTeam Milram00:52:37  +  00:06:08=44,473 
169 AUTPeter WrolichDEUTeam Milram00:52:37  +  00:06:08=44,473 
170 ESPAlan PerezESPEuskaltel - Euskadi00:52:55  +  00:06:26=44,220 
171 SUIGregory RastKAZAstana Pro Team00:53:01  +  00:06:32=44,137 
172 ITADanilo NapolitanoRUSTeam Katusha00:53:04  +  00:06:35=44,095 
173 AUTBernhard EiselUSATeam Columbia-HTC00:53:28  +  00:06:59=43,766 
174 BELJurgen Van Den BroeckBELSilence-Lotto00:53:33  +  00:07:04=43,697 
175 BELStaf ScheirlinckxBELSilence-Lotto00:53:33  +  00:07:04=43,697 
176 ITAAngelo FurlanITALampre-N.G.C00:53:49  +  00:07:20=43,481 
177 GERFabian WegmannDEUTeam Milram00:53:51  +  00:07:22=43,454 
178 FRARomain FeilluFRAAgritubel00:53:52  +  00:07:23=43,441 

Withdrawls: 1
 
Rider
Team
Reason
197  NEDPiet RooijakkersNLDSkil-ShimanoDid not finish

Todays birthdays.

1883  Cyrille Van Hauwaert
1885  Pierino Albini
1889  Joseph Vandaele
1891  Antoine Rière
1892  Charles Arnulf
1895  Giuseppe Ruffoni
1905  Edmond Berenger
1905  Leon Chene
1905  Paul Le Drogo
1923  Georges Gilles
1935  Jean Anastasi
1938  Tommaso De Pra
1944  Bernard Vifian
1949  Paul Aerts
1950  Roy Schuiten
1962  Antonio Castro
1962  Charly Mottet
1964  Roberto Conti
1964  Denis Leproux
1970  Jo Planckaert